Location: Austin
(30.3000°N, 97.7500°W)
Time: 03:47:56
(UTC-05:00)

Cosmos 2322 Rocket - Pass Details

Date: 18 March 2023
Orbit: 831 x 852 km, 71.0° (Epoch: 01 April)

Event Time Altitude Azimuth Distance (km) Brightness Sun altitude
Rises 21:35:33 0° 329° (NNW) 3,417 6.0 -25.3°
Reaches altitude 10° 21:38:09 10° 322° (NW) 2,480 5.3 -25.8°
Maximum altitude 21:43:20 37° 256° (WSW) 1,294 3.5 -26.9°
Enters shadow 21:48:19 11° 191° (SSW) 2,402 4.5 -27.9°
